When you browse on this site, cookies collect data to enhance your experience and personalize the content and advertising you see.
Visit our Privacy Policy to learn more. By continuing to use the site, you agree to this use of cookies and data.
  • In Romania
  • List of Countries
  • For 7 days
  • Water Temperature
  • Satellite Maps
  • Weather Map
  • Weather Widgets
  • user-avatar
    Login

    Hourly Weather Santa Fe

    Today, 18 June, Tuesday

    Time Temperature Precipitation Wind Pressure Humidity
    00:00 +10°C° 0.8 mm 2 mps 759 mmHg 95%
    01:00 +10°C° 0.8 mm 2 mps 759 mmHg 95%
    02:00 +10°C° 0.8 mm 3 mps 759 mmHg 94%
    03:00 +10°C° 0.3 mm 3 mps 759 mmHg 94%
    04:00 +10°C° 0.3 mm 3 mps 759 mmHg 93%
    05:00 +10°C° 0.3 mm 3 mps 759 mmHg 92%
    06:00 +10°C° 0 mm 3 mps 759 mmHg 92%
    07:00 +9°C° 0 mm 3 mps 760 mmHg 91%
    08:00 +9°C° 0 mm 2 mps 760 mmHg 91%
    09:00 +10°C° 0 mm 3 mps 761 mmHg 84%
    10:00 +12°C° 0 mm 3 mps 761 mmHg 77%
    11:00 +13°C° 0 mm 3 mps 761 mmHg 70%
    12:00 +14°C° 0 mm 4 mps 761 mmHg 68%
    13:00 +15°C° 0 mm 4 mps 760 mmHg 65%
    14:00 +15°C° 0 mm 4 mps 760 mmHg 63%
    15:00 +14°C° 0 mm 3 mps 760 mmHg 66%
    16:00 +13°C° 0 mm 3 mps 760 mmHg 68%
    17:00 +13°C° 0 mm 2 mps 760 mmHg 71%
    18:00 +13°C° 0 mm 2 mps 760 mmHg 71%
    19:00 +12°C° 0 mm 2 mps 761 mmHg 71%
    20:00 +10°C° 0 mm 2 mps 761 mmHg 71%
    21:00 +10°C° 0 mm 3 mps 761 mmHg 71%
    22:00 +10°C° 0 mm 3 mps 762 mmHg 72%
    23:00 +9°C° 0 mm 3 mps 762 mmHg 73%

    Tomorrow, 19 June, Wednesday

    Time Temperature Precipitation Wind Pressure Humidity
    00:00 +9°C° 0 mm 3 mps 762 mmHg 75%
    01:00 +8°C° 0 mm 4 mps 762 mmHg 76%
    02:00 +8°C° 0 mm 4 mps 762 mmHg 77%
    03:00 +9°C° 0 mm 3 mps 762 mmHg 77%
    04:00 +8°C° 0 mm 3 mps 762 mmHg 76%
    05:00 +8°C° 0 mm 3 mps 762 mmHg 76%
    06:00 +8°C° 0 mm 3 mps 763 mmHg 77%
    07:00 +8°C° 0 mm 3 mps 763 mmHg 78%
    08:00 +9°C° 0 mm 3 mps 764 mmHg 79%
    09:00 +11°C° 0 mm 3 mps 764 mmHg 70%
    10:00 +13°C° 0 mm 4 mps 764 mmHg 61%
    11:00 +17°C° 0 mm 4 mps 765 mmHg 51%
    12:00 +17°C° 0 mm 4 mps 764 mmHg 50%
    13:00 +17°C° 0 mm 4 mps 764 mmHg 50%
    14:00 +18°C° 0 mm 4 mps 763 mmHg 49%
    15:00 +16°C° 0 mm 3 mps 763 mmHg 54%
    16:00 +15°C° 0 mm 2 mps 763 mmHg 59%
    17:00 +14°C° 0 mm 2 mps 764 mmHg 64%
    18:00 +13°C° 0 mm 2 mps 764 mmHg 64%
    19:00 +12°C° 0 mm 2 mps 764 mmHg 65%
    20:00 +12°C° 0 mm 2 mps 764 mmHg 65%
    21:00 +10°C° 0 mm 2 mps 765 mmHg 65%
    22:00 +11°C° 0 mm 1 mps 765 mmHg 65%
    23:00 +11°C° 0 mm 1 mps 765 mmHg 65%

    Day after tomorrow, 20 June, Thursday

    Time Temperature Precipitation Wind Pressure Humidity
    00:00 +10°C° 0 mm 1 mps 765 mmHg 65%
    01:00 +10°C° 0 mm 1 mps 765 mmHg 65%
    02:00 +10°C° 0 mm 1 mps 765 mmHg 65%
    03:00 +9°C° 0 mm 1 mps 765 mmHg 66%
    04:00 +8°C° 0 mm 0 mps 765 mmHg 66%
    05:00 +8°C° 0 mm 0 mps 765 mmHg 66%
    06:00 +8°C° 0 mm 0 mps 765 mmHg 67%
    07:00 +9°C° 0 mm 1 mps 765 mmHg 68%
    08:00 +10°C° 0 mm 1 mps 766 mmHg 69%
    09:00 +11°C° 0 mm 1 mps 766 mmHg 65%
    10:00 +13°C° 0 mm 2 mps 766 mmHg 61%
    11:00 +15°C° 0 mm 2 mps 766 mmHg 57%
    12:00 +16°C° 0 mm 2 mps 765 mmHg 55%
    13:00 +17°C° 0 mm 3 mps 765 mmHg 53%
    14:00 +18°C° 0 mm 3 mps 764 mmHg 51%
    15:00 +16°C° 0 mm 3 mps 764 mmHg 57%
    16:00 +14°C° 0 mm 3 mps 763 mmHg 63%
    17:00 +14°C° 0 mm 2 mps 763 mmHg 69%
    18:00 +12°C° 0 mm 3 mps 763 mmHg 72%
    19:00 +12°C° 0 mm 3 mps 763 mmHg 75%
    20:00 +11°C° 0 mm 3 mps 763 mmHg 77%
    21:00 +11°C° 0 mm 3 mps 763 mmHg 78%
    22:00 +10°C° 0 mm 3 mps 763 mmHg 79%
    23:00 +10°C° 0 mm 3 mps 762 mmHg 81%

    21 June, Friday

    Time Temperature Precipitation Wind Pressure Humidity
    00:00 +10°C° 0 mm 3 mps 762 mmHg 83%
    01:00 +10°C° 0 mm 3 mps 762 mmHg 86%
    02:00 +8°C° 0 mm 4 mps 762 mmHg 88%
    03:00 +8°C° 0 mm 4 mps 761 mmHg 89%
    04:00 +9°C° 0 mm 3 mps 761 mmHg 89%
    05:00 +9°C° 0 mm 3 mps 761 mmHg 90%
    06:00 +10°C° 0 mm 4 mps 761 mmHg 89%
    07:00 +10°C° 0 mm 4 mps 761 mmHg 88%
    08:00 +10°C° 0 mm 4 mps 761 mmHg 87%
    09:00 +12°C° 0 mm 4 mps 762 mmHg 82%
    10:00 +14°C° 0 mm 4 mps 762 mmHg 77%
    11:00 +15°C° 0 mm 4 mps 762 mmHg 71%
    12:00 +17°C° 0 mm 3 mps 761 mmHg 72%
    13:00 +17°C° 0 mm 3 mps 760 mmHg 73%
    14:00 +18°C° 0 mm 3 mps 760 mmHg 73%
    15:00 +18°C° 0 mm 2 mps 760 mmHg 77%
    16:00 +17°C° 0 mm 2 mps 760 mmHg 81%
    17:00 +17°C° 0 mm 2 mps 760 mmHg 86%
    18:00 +17°C° 0 mm 2 mps 760 mmHg 86%
    19:00 +18°C° 0 mm 1 mps 760 mmHg 87%
    20:00 +18°C° 0 mm 1 mps 761 mmHg 88%
    21:00 +17°C° 0 mm 2 mps 761 mmHg 89%
    22:00 +17°C° 0 mm 2 mps 761 mmHg 89%
    23:00 +17°C° 0 mm 3 mps 761 mmHg 89%

    22 June, Saturday

    Time Temperature Precipitation Wind Pressure Humidity
    00:00 +17°C° 0 mm 3 mps 760 mmHg 91%
    01:00 +17°C° 0 mm 2 mps 760 mmHg 93%
    02:00 +17°C° 0 mm 2 mps 760 mmHg 95%
    03:00 +18°C° 0 mm 2 mps 760 mmHg 95%
    04:00 +19°C° 0 mm 1 mps 759 mmHg 96%
    05:00 +19°C° 0 mm 1 mps 759 mmHg 96%
    06:00 +19°C° 0 mm 1 mps 759 mmHg 96%
    07:00 +19°C° 0 mm 1 mps 760 mmHg 96%
    08:00 +19°C° 0 mm 1 mps 760 mmHg 96%
    09:00 +20°C° 0 mm 1 mps 760 mmHg 95%
    10:00 +20°C° 0 mm 2 mps 760 mmHg 93%
    11:00 +21°C° 0 mm 2 mps 761 mmHg 91%
    12:00 +23°C° 0 mm 2 mps 760 mmHg 86%
    13:00 +24°C° 0 mm 3 mps 759 mmHg 81%
    14:00 +26°C° 0 mm 3 mps 759 mmHg 75%
    15:00 +25°C° 0 mm 2 mps 759 mmHg 79%
    16:00 +24°C° 0 mm 2 mps 759 mmHg 82%
    17:00 +23°C° 0 mm 1 mps 759 mmHg 86%
    18:00 +23°C° 0 mm 1 mps 759 mmHg 88%
    19:00 +21°C° 0 mm 2 mps 759 mmHg 89%
    20:00 +21°C° 0 mm 2 mps 759 mmHg 91%
    21:00 +20°C° 0 mm 2 mps 759 mmHg 92%
    22:00 +20°C° 0 mm 2 mps 759 mmHg 93%
    23:00 +20°C° 0 mm 2 mps 759 mmHg 93%

    23 June, Sunday

    Time Temperature Precipitation Wind Pressure Humidity
    00:00 +20°C° 0 mm 2 mps 759 mmHg 94%
    01:00 +20°C° 0 mm 2 mps 759 mmHg 94%
    02:00 +20°C° 0 mm 2 mps 758 mmHg 94%
    03:00 +20°C° 0 mm 2 mps 758 mmHg 94%
    04:00 +19°C° 0 mm 2 mps 758 mmHg 95%
    05:00 +19°C° 0 mm 2 mps 758 mmHg 95%
    06:00 +19°C° 0 mm 3 mps 758 mmHg 95%
    07:00 +20°C° 0 mm 3 mps 758 mmHg 94%
    08:00 +20°C° 0 mm 3 mps 758 mmHg 93%
    09:00 +21°C° 0 mm 3 mps 757 mmHg 88%
    10:00 +22°C° 0 mm 4 mps 757 mmHg 82%
    11:00 +25°C° 0 mm 4 mps 757 mmHg 76%
    12:00 +25°C° 0 mm 4 mps 756 mmHg 73%
    13:00 +26°C° 0 mm 5 mps 755 mmHg 69%
    14:00 +27°C° 0 mm 5 mps 754 mmHg 66%
    15:00 +26°C° 0 mm 4 mps 754 mmHg 70%
    16:00 +25°C° 0 mm 3 mps 753 mmHg 75%
    17:00 +24°C° 0 mm 3 mps 753 mmHg 79%
    18:00 +22°C° 0 mm 3 mps 753 mmHg 81%
    19:00 +22°C° 0 mm 3 mps 753 mmHg 82%
    20:00 +21°C° 0 mm 3 mps 753 mmHg 84%
    21:00 +21°C° 0 mm 3 mps 753 mmHg 84%
    22:00 +21°C° 0 mm 4 mps 753 mmHg 85%
    23:00 +21°C° 0 mm 4 mps 753 mmHg 85%
    Show more